Wetterdaten: Freitag, 10.04.2020
Datum Zeit Temp. Auen Feucht Auen Luftdruck Regen Richtung Richtung Windben
10.04.2020 00:00 7,3 C 76 % 1024,0 hPa 0,0 mm W 267 8,0 km/h (2 Bft)
10.04.2020 00:05 7,3 C 76 % 1023,9 hPa 0,0 mm W 267 6,4 km/h (2 Bft)
10.04.2020 00:10 7,2 C 76 % 1023,9 hPa 0,0 mm W 267 6,4 km/h (2 Bft)
10.04.2020 00:15 7,2 C 76 % 1024,0 hPa 0,0 mm W 267 6,4 km/h (2 Bft)
10.04.2020 00:20 7,2 C 76 % 1024,0 hPa 0,0 mm W 267 6,4 km/h (2 Bft)
10.04.2020 00:25 7,1 C 76 % 1024,0 hPa 0,0 mm W 267 6,4 km/h (2 Bft)
10.04.2020 00:30 7,1 C 76 % 1023,9 hPa 0,0 mm W 267 4,8 km/h (1 Bft)
10.04.2020 00:35 7,0 C 76 % 1023,9 hPa 0,0 mm W 267 6,4 km/h (2 Bft)
10.04.2020 00:40 6,9 C 76 % 1023,9 hPa 0,0 mm W 265 6,4 km/h (2 Bft)
10.04.2020 00:45 6,9 C 77 % 1023,9 hPa 0,0 mm W 265 4,8 km/h (1 Bft)
10.04.2020 00:50 6,8 C 77 % 1024,0 hPa 0,0 mm W 266 6,4 km/h (2 Bft)
10.04.2020 00:55 6,8 C 77 % 1023,9 hPa 0,0 mm W 266 6,4 km/h (2 Bft)
10.04.2020 01:00 6,7 C 77 % 1024,0 hPa 0,0 mm W 266 3,2 km/h (1 Bft)
10.04.2020 01:05 6,7 C 77 % 1024,0 hPa 0,0 mm W 266 4,8 km/h (1 Bft)
10.04.2020 01:10 6,6 C 77 % 1024,0 hPa 0,0 mm W 266 4,8 km/h (1 Bft)
10.04.2020 01:15 6,6 C 77 % 1024,1 hPa 0,0 mm W 266 3,2 km/h (1 Bft)
10.04.2020 01:20 6,5 C 77 % 1024,0 hPa 0,0 mm W 266 4,8 km/h (1 Bft)
10.04.2020 01:25 6,4 C 77 % 1024,0 hPa 0,0 mm W 266 0,0 km/h (0 Bft)
10.04.2020 01:30 6,2 C 77 % 1023,9 hPa 0,0 mm W 266 3,2 km/h (1 Bft)
10.04.2020 01:35 6,1 C 77 % 1023,9 hPa 0,0 mm W 266 4,8 km/h (1 Bft)
10.04.2020 01:40 6,0 C 77 % 1023,9 hPa 0,0 mm W 266 3,2 km/h (1 Bft)
10.04.2020 01:45 5,9 C 77 % 1023,9 hPa 0,0 mm W 266 4,8 km/h (1 Bft)
10.04.2020 01:50 5,8 C 77 % 1023,9 hPa 0,0 mm W 266 0,0 km/h (0 Bft)
10.04.2020 01:55 5,7 C 77 % 1023,9 hPa 0,0 mm W 266 1,6 km/h (1 Bft)
10.04.2020 02:00 5,5 C 77 % 1023,8 hPa 0,0 mm W 266 1,6 km/h (1 Bft)
10.04.2020 02:05 5,4 C 77 % 1023,8 hPa 0,0 mm W 266 0,0 km/h (0 Bft)
10.04.2020 02:10 5,3 C 78 % 1023,8 hPa 0,0 mm W 266 3,2 km/h (1 Bft)
10.04.2020 02:15 5,2 C 78 % 1023,8 hPa 0,0 mm W 266 1,6 km/h (1 Bft)
10.04.2020 02:20 5,1 C 78 % 1023,8 hPa 0,0 mm W 266 4,8 km/h (1 Bft)
10.04.2020 02:25 4,9 C 78 % 1023,8 hPa 0,0 mm W 266 1,6 km/h (1 Bft)
10.04.2020 02:30 4,8 C 79 % 1023,8 hPa 0,0 mm W 266 3,2 km/h (1 Bft)
10.04.2020 02:35 4,7 C 79 % 1023,8 hPa 0,0 mm W 266 3,2 km/h (1 Bft)
10.04.2020 02:40 4,6 C 79 % 1023,8 hPa 0,0 mm W 266 3,2 km/h (1 Bft)
10.04.2020 02:45 4,5 C 80 % 1023,8 hPa 0,0 mm W 266 4,8 km/h (1 Bft)
10.04.2020 02:50 4,4 C 80 % 1023,8 hPa 0,0 mm W 266 3,2 km/h (1 Bft)
10.04.2020 02:55 4,3 C 80 % 1023,8 hPa 0,0 mm W 266 4,8 km/h (1 Bft)
10.04.2020 03:00 4,3 C 81 % 1023,8 hPa 0,0 mm W 266 3,2 km/h (1 Bft)
10.04.2020 03:05 4,3 C 82 % 1023,8 hPa 0,0 mm W 266 3,2 km/h (1 Bft)
10.04.2020 03:10 4,3 C 82 % 1023,8 hPa 0,0 mm W 266 0,0 km/h (0 Bft)
10.04.2020 03:15 4,2 C 82 % 1023,8 hPa 0,0 mm W 266 3,2 km/h (1 Bft)
10.04.2020 03:20 4,2 C 82 % 1023,8 hPa 0,0 mm W 266 1,6 km/h (1 Bft)
10.04.2020 03:25 4,2 C 82 % 1023,7 hPa 0,0 mm W 266 0,0 km/h (0 Bft)
10.04.2020 03:30 4,2 C 82 % 1023,8 hPa 0,0 mm W 266 3,2 km/h (1 Bft)
10.04.2020 03:35 4,1 C 83 % 1023,8 hPa 0,0 mm W 266 3,2 km/h (1 Bft)
10.04.2020 03:40 4,1 C 83 % 1023,8 hPa 0,0 mm W 266 4,8 km/h (1 Bft)
10.04.2020 03:45 4,0 C 83 % 1023,8 hPa 0,0 mm W 266 1,6 km/h (1 Bft)
10.04.2020 03:50 4,0 C 83 % 1023,9 hPa 0,0 mm W 266 3,2 km/h (1 Bft)
10.04.2020 03:55 4,1 C 83 % 1023,9 hPa 0,0 mm W 266 3,2 km/h (1 Bft)
10.04.2020 04:00 4,1 C 84 % 1023,8 hPa 0,0 mm W 266 0,0 km/h (0 Bft)
10.04.2020 04:05 4,0 C 83 % 1023,8 hPa 0,0 mm W 266 1,6 km/h (1 Bft)
10.04.2020 04:10 3,9 C 83 % 1023,8 hPa 0,0 mm W 266 1,6 km/h (1 Bft)
10.04.2020 04:15 3,9 C 84 % 1023,9 hPa 0,0 mm W 266 3,2 km/h (1 Bft)
10.04.2020 04:20 3,9 C 84 % 1023,8 hPa 0,0 mm W 266 3,2 km/h (1 Bft)
10.04.2020 04:25 3,8 C 84 % 1023,8 hPa 0,0 mm W 266 1,6 km/h (1 Bft)
10.04.2020 04:30 3,7 C 84 % 1023,8 hPa 0,0 mm W 266 0,0 km/h (0 Bft)
10.04.2020 04:35 3,6 C 84 % 1023,8 hPa 0,0 mm W 266 0,0 km/h (0 Bft)
10.04.2020 04:40 3,6 C 84 % 1023,9 hPa 0,0 mm W 266 0,0 km/h (0 Bft)
10.04.2020 04:45 3,5 C 83 % 1024,0 hPa 0,0 mm W 266 0,0 km/h (0 Bft)
10.04.2020 04:50 3,4 C 83 % 1024,0 hPa 0,0 mm W 266 0,0 km/h (0 Bft)
10.04.2020 04:55 3,3 C 84 % 1024,0 hPa 0,0 mm W 266 0,0 km/h (0 Bft)
10.04.2020 05:00 3,2 C 84 % 1024,0 hPa 0,0 mm W 266 0,0 km/h (0 Bft)
10.04.2020 05:05 3,2 C 83 % 1024,0 hPa 0,0 mm W 266 0,0 km/h (0 Bft)
10.04.2020 05:10 3,2 C 84 % 1024,0 hPa 0,0 mm W 266 4,8 km/h (1 Bft)
10.04.2020 05:15 3,1 C 84 % 1024,0 hPa 0,0 mm W 266 4,8 km/h (1 Bft)
10.04.2020 05:20 3,2 C 84 % 1024,0 hPa 0,0 mm W 266 4,8 km/h (1 Bft)
10.04.2020 05:25 3,2 C 84 % 1023,9 hPa 0,0 mm W 266 1,6 km/h (1 Bft)
10.04.2020 05:30 3,1 C 85 % 1024,0 hPa 0,0 mm W 266 1,6 km/h (1 Bft)
10.04.2020 05:35 3,1 C 85 % 1023,9 hPa 0,0 mm W 266 0,0 km/h (0 Bft)
10.04.2020 05:40 3,1 C 85 % 1023,9 hPa 0,0 mm W 266 4,8 km/h (1 Bft)
10.04.2020 05:45 3,1 C 85 % 1023,9 hPa 0,0 mm W 266 4,8 km/h (1 Bft)
10.04.2020 05:50 3,0 C 85 % 1023,9 hPa 0,0 mm W 266 3,2 km/h (1 Bft)
10.04.2020 05:55 3,0 C 85 % 1023,9 hPa 0,0 mm W 266 0,0 km/h (0 Bft)
10.04.2020 06:00 3,0 C 85 % 1024,0 hPa 0,0 mm W 266 0,0 km/h (0 Bft)
10.04.2020 06:05 3,0 C 86 % 1024,1 hPa 0,0 mm W 266 0,0 km/h (0 Bft)
10.04.2020 06:10 3,0 C 85 % 1024,0 hPa 0,0 mm W 266 0,0 km/h (0 Bft)
10.04.2020 06:15 2,9 C 86 % 1024,0 hPa 0,0 mm W 266 0,0 km/h (0 Bft)
10.04.2020 06:20 2,9 C 86 % 1024,1 hPa 0,0 mm W 266 0,0 km/h (0 Bft)
10.04.2020 06:25 2,9 C 86 % 1024,2 hPa 0,0 mm W 266 0,0 km/h (0 Bft)
10.04.2020 06:30 2,9 C 86 % 1024,2 hPa 0,0 mm W 266 0,0 km/h (0 Bft)
10.04.2020 06:35 2,9 C 86 % 1024,2 hPa 0,0 mm W 266 0,0 km/h (0 Bft)
10.04.2020 06:40 2,8 C 86 % 1024,3 hPa 0,0 mm W 266 0,0 km/h (0 Bft)
10.04.2020 06:45 2,8 C 86 % 1024,3 hPa 0,0 mm W 266 0,0 km/h (0 Bft)
10.04.2020 06:50 2,7 C 86 % 1024,3 hPa 0,0 mm W 266 0,0 km/h (0 Bft)
10.04.2020 06:55 2,7 C 86 % 1024,4 hPa 0,0 mm W 266 0,0 km/h (0 Bft)
10.04.2020 07:00 2,7 C 86 % 1024,4 hPa 0,0 mm W 266 0,0 km/h (0 Bft)
10.04.2020 07:05 2,7 C 86 % 1024,5 hPa 0,0 mm W 266 0,0 km/h (0 Bft)
10.04.2020 07:10 2,8 C 86 % 1024,6 hPa 0,0 mm W 266 0,0 km/h (0 Bft)
10.04.2020 07:15 3,3 C 87 % 1024,6 hPa 0,0 mm W 266 0,0 km/h (0 Bft)
10.04.2020 07:20 3,8 C 87 % 1024,6 hPa 0,0 mm W 266 0,0 km/h (0 Bft)
10.04.2020 07:25 4,1 C 87 % 1024,6 hPa 0,0 mm W 266 0,0 km/h (0 Bft)
10.04.2020 07:30 4,6 C 87 % 1024,7 hPa 0,0 mm W 266 0,0 km/h (0 Bft)
10.04.2020 07:35 5,1 C 86 % 1024,7 hPa 0,0 mm W 266 0,0 km/h (0 Bft)
10.04.2020 07:40 5,1 C 85 % 1024,7 hPa 0,0 mm W 266 0,0 km/h (0 Bft)
10.04.2020 07:45 4,9 C 86 % 1024,7 hPa 0,0 mm W 266 0,0 km/h (0 Bft)
10.04.2020 07:50 5,2 C 87 % 1024,8 hPa 0,0 mm W 266 0,0 km/h (0 Bft)
10.04.2020 07:55 5,6 C 88 % 1024,8 hPa 0,0 mm W 266 0,0 km/h (0 Bft)
10.04.2020 08:00 5,9 C 88 % 1024,9 hPa 0,0 mm W 266 0,0 km/h (0 Bft)
10.04.2020 08:05 6,4 C 86 % 1024,9 hPa 0,0 mm W 266 0,0 km/h (0 Bft)
10.04.2020 08:10 7,1 C 84 % 1024,9 hPa 0,0 mm W 266 0,0 km/h (0 Bft)
10.04.2020 08:15 7,1 C 83 % 1024,9 hPa 0,0 mm W 266 0,0 km/h (0 Bft)
10.04.2020 08:20 7,2 C 82 % 1024,9 hPa 0,0 mm W 266 0,0 km/h (0 Bft)
10.04.2020 08:25 7,7 C 83 % 1024,9 hPa 0,0 mm W 266 0,0 km/h (0 Bft)
10.04.2020 08:30 8,2 C 81 % 1024,9 hPa 0,0 mm W 266 0,0 km/h (0 Bft)
10.04.2020 08:35 8,4 C 79 % 1024,8 hPa 0,0 mm W 266 0,0 km/h (0 Bft)
10.04.2020 08:40 8,9 C 77 % 1024,8 hPa 0,0 mm W 266 0,0 km/h (0 Bft)
10.04.2020 08:45 9,2 C 78 % 1024,8 hPa 0,0 mm W 263 3,2 km/h (1 Bft)
10.04.2020 08:50 9,3 C 78 % 1024,7 hPa 0,0 mm O 101 8,0 km/h (2 Bft)
10.04.2020 08:55 9,7 C 79 % 1024,7 hPa 0,0 mm O-SO 105 4,8 km/h (1 Bft)
10.04.2020 09:00 9,7 C 76 % 1024,7 hPa 0,0 mm O 97 8,0 km/h (2 Bft)
10.04.2020 09:05 10,0 C 76 % 1024,6 hPa 0,0 mm O 84 8,0 km/h (2 Bft)
10.04.2020 09:10 10,3 C 77 % 1024,7 hPa 0,0 mm O 84 8,0 km/h (2 Bft)
10.04.2020 09:15 10,5 C 75 % 1024,7 hPa 0,0 mm O 84 4,8 km/h (1 Bft)
10.04.2020 09:20 10,8 C 75 % 1024,7 hPa 0,0 mm O-SO 114 6,4 km/h (2 Bft)
10.04.2020 09:25 10,8 C 74 % 1024,7 hPa 0,0 mm SO 132 6,4 km/h (2 Bft)
10.04.2020 09:30 11,1 C 76 % 1024,7 hPa 0,0 mm SO 130 8,0 km/h (2 Bft)
10.04.2020 09:35 11,3 C 75 % 1024,7 hPa 0,0 mm SO 129 8,0 km/h (2 Bft)
10.04.2020 09:40 11,4 C 74 % 1024,7 hPa 0,0 mm SO 136 8,0 km/h (2 Bft)
10.04.2020 09:45 11,8 C 75 % 1024,7 hPa 0,0 mm O-SO 107 8,0 km/h (2 Bft)
10.04.2020 09:50 12,3 C 74 % 1024,6 hPa 0,0 mm O-SO 105 9,7 km/h (2 Bft)
10.04.2020 09:55 12,6 C 71 % 1024,6 hPa 0,0 mm O 94 11,3 km/h (2 Bft)
10.04.2020 10:00 12,7 C 70 % 1024,6 hPa 0,0 mm O 88 12,9 km/h (3 Bft)
10.04.2020 10:05 12,9 C 72 % 1024,5 hPa 0,0 mm O 83 12,9 km/h (3 Bft)
10.04.2020 10:10 13,1 C 68 % 1024,5 hPa 0,0 mm O 98 12,9 km/h (3 Bft)
10.04.2020 10:15 13,3 C 67 % 1024,5 hPa 0,0 mm O-SO 103 14,5 km/h (3 Bft)
10.04.2020 10:20 13,6 C 66 % 1024,5 hPa 0,0 mm O-SO 103 14,5 km/h (3 Bft)
10.04.2020 10:25 13,8 C 66 % 1024,5 hPa 0,0 mm O 96 12,9 km/h (3 Bft)
10.04.2020 10:30 13,9 C 67 % 1024,5 hPa 0,0 mm O 90 11,3 km/h (2 Bft)
10.04.2020 10:35 14,1 C 64 % 1024,4 hPa 0,0 mm O 82 12,9 km/h (3 Bft)
10.04.2020 10:40 14,2 C 62 % 1024,4 hPa 0,0 mm O 92 12,9 km/h (3 Bft)
10.04.2020 10:45 14,4 C 63 % 1024,4 hPa 0,0 mm O 80 11,3 km/h (2 Bft)
10.04.2020 10:50 14,7 C 64 % 1024,3 hPa 0,0 mm SO 130 12,9 km/h (3 Bft)
10.04.2020 10:55 14,9 C 61 % 1024,3 hPa 0,0 mm O 87 12,9 km/h (3 Bft)
10.04.2020 11:00 15,0 C 60 % 1024,3 hPa 0,0 mm SO 124 14,5 km/h (3 Bft)
10.04.2020 11:05 15,0 C 60 % 1024,3 hPa 0,0 mm O-SO 112 12,9 km/h (3 Bft)
10.04.2020 11:10 15,2 C 61 % 1024,2 hPa 0,0 mm O-SO 107 12,9 km/h (3 Bft)
10.04.2020 11:15 15,4 C 61 % 1024,2 hPa 0,0 mm O-NO 69 11,3 km/h (2 Bft)
10.04.2020 11:20 15,6 C 62 % 1024,1 hPa 0,0 mm O-SO 111 12,9 km/h (3 Bft)
10.04.2020 11:25 15,7 C 61 % 1024,2 hPa 0,0 mm O-SO 110 12,9 km/h (3 Bft)
10.04.2020 11:30 15,8 C 61 % 1024,1 hPa 0,0 mm O 88 12,9 km/h (3 Bft)
10.04.2020 11:35 15,8 C 61 % 1024,1 hPa 0,0 mm O 81 12,9 km/h (3 Bft)
10.04.2020 11:40 16,2 C 60 % 1024,0 hPa 0,0 mm O 80 12,9 km/h (3 Bft)
10.04.2020 11:45 16,4 C 59 % 1024,0 hPa 0,0 mm O-SO 106 11,3 km/h (2 Bft)
10.04.2020 11:50 16,4 C 56 % 1023,9 hPa 0,0 mm SO 134 11,3 km/h (2 Bft)
10.04.2020 11:55 16,6 C 61 % 1023,9 hPa 0,0 mm O-NO 78 8,0 km/h (2 Bft)
10.04.2020 12:00 16,8 C 59 % 1023,9 hPa 0,0 mm O-NO 69 11,3 km/h (2 Bft)
10.04.2020 12:05 16,9 C 56 % 1023,9 hPa 0,0 mm O-NO 78 11,3 km/h (2 Bft)
10.04.2020 12:10 17,0 C 61 % 1023,8 hPa 0,0 mm O-SO 105 9,7 km/h (2 Bft)
10.04.2020 12:15 17,0 C 56 % 1023,8 hPa 0,0 mm O-SO 105 9,7 km/h (2 Bft)
10.04.2020 12:20 17,2 C 55 % 1023,8 hPa 0,0 mm O-SO 117 11,3 km/h (2 Bft)
10.04.2020 12:25 17,4 C 55 % 1023,7 hPa 0,0 mm O 96 11,3 km/h (2 Bft)
10.04.2020 12:30 17,5 C 55 % 1023,7 hPa 0,0 mm O 96 11,3 km/h (2 Bft)
10.04.2020 12:35 17,6 C 55 % 1023,7 hPa 0,0 mm NO 39 9,7 km/h (2 Bft)
10.04.2020 12:40 17,9 C 52 % 1023,7 hPa 0,0 mm SO 140 11,3 km/h (2 Bft)
10.04.2020 12:45 18,2 C 57 % 1023,6 hPa 0,0 mm O 94 8,0 km/h (2 Bft)
10.04.2020 12:50 18,1 C 50 % 1023,5 hPa 0,0 mm O 97 9,7 km/h (2 Bft)
10.04.2020 12:55 18,2 C 51 % 1023,5 hPa 0,0 mm O-SO 123 8,0 km/h (2 Bft)
10.04.2020 13:00 18,2 C 47 % 1023,4 hPa 0,0 mm O-SO 123 8,0 km/h (2 Bft)
10.04.2020 13:05 18,7 C 50 % 1023,4 hPa 0,0 mm SO 144 8,0 km/h (2 Bft)
10.04.2020 13:10 18,7 C 57 % 1023,3 hPa 0,0 mm S-SO 148 8,0 km/h (2 Bft)
10.04.2020 13:15 18,9 C 56 % 1023,3 hPa 0,0 mm O-SO 109 9,7 km/h (2 Bft)
10.04.2020 13:20 19,1 C 48 % 1023,2 hPa 0,0 mm SO 146 9,7 km/h (2 Bft)
10.04.2020 13:25 19,1 C 50 % 1023,1 hPa 0,0 mm O-SO 115 9,7 km/h (2 Bft)
10.04.2020 13:30 19,3 C 51 % 1023,0 hPa 0,0 mm SO 124 9,7 km/h (2 Bft)
10.04.2020 13:35 19,3 C 50 % 1023,0 hPa 0,0 mm SO 138 8,0 km/h (2 Bft)
10.04.2020 13:40 19,4 C 58 % 1022,9 hPa 0,0 mm O-SO 105 9,7 km/h (2 Bft)
10.04.2020 13:45 19,6 C 49 % 1022,8 hPa 0,0 mm SO 126 9,7 km/h (2 Bft)
10.04.2020 13:50 19,4 C 53 % 1022,7 hPa 0,0 mm O-NO 71 11,3 km/h (2 Bft)
10.04.2020 13:55 19,4 C 48 % 1022,7 hPa 0,0 mm O 92 12,9 km/h (3 Bft)
10.04.2020 14:00 19,4 C 46 % 1022,7 hPa 0,0 mm SO 124 9,7 km/h (2 Bft)
10.04.2020 14:05 19,6 C 48 % 1022,7 hPa 0,0 mm O-SO 123 11,3 km/h (2 Bft)
10.04.2020 14:10 19,3 C 43 % 1022,6 hPa 0,0 mm O-SO 123 6,4 km/h (2 Bft)
10.04.2020 14:15 19,5 C 43 % 1022,5 hPa 0,0 mm O-SO 117 11,3 km/h (2 Bft)
10.04.2020 14:20 19,6 C 48 % 1022,5 hPa 0,0 mm O-SO 119 11,3 km/h (2 Bft)
10.04.2020 14:25 19,6 C 42 % 1022,5 hPa 0,0 mm S-SO 153 8,0 km/h (2 Bft)
10.04.2020 14:30 19,9 C 41 % 1022,4 hPa 0,0 mm W 280 9,7 km/h (2 Bft)
10.04.2020 14:35 20,4 C 39 % 1022,4 hPa 0,0 mm SW 225 6,4 km/h (2 Bft)
10.04.2020 14:40 19,9 C 44 % 1022,5 hPa 0,0 mm S-SO 157 6,4 km/h (2 Bft)
10.04.2020 14:45 19,9 C 43 % 1022,4 hPa 0,0 mm O 80 9,7 km/h (2 Bft)
10.04.2020 14:50 20,1 C 40 % 1022,4 hPa 0,0 mm N 5 8,0 km/h (2 Bft)
10.04.2020 14:55 19,9 C 44 % 1022,2 hPa 0,0 mm O-NO 61 9,7 km/h (2 Bft)
10.04.2020 15:00 20,3 C 39 % 1022,1 hPa 0,0 mm N-NO 32 11,3 km/h (2 Bft)
10.04.2020 15:05 19,8 C 39 % 1022,0 hPa 0,0 mm O 90 12,9 km/h (3 Bft)
10.04.2020 15:10 19,7 C 39 % 1022,0 hPa 0,0 mm NW 313 14,5 km/h (3 Bft)
10.04.2020 15:15 20,1 C 39 % 1022,0 hPa 0,0 mm W-SW 248 11,3 km/h (2 Bft)
10.04.2020 15:20 20,0 C 37 % 1022,0 hPa 0,0 mm N 5 12,9 km/h (3 Bft)
10.04.2020 15:25 19,8 C 45 % 1021,8 hPa 0,0 mm NO 56 4,8 km/h (1 Bft)
10.04.2020 15:30 20,1 C 38 % 1021,7 hPa 0,0 mm W 267 4,8 km/h (1 Bft)
10.04.2020 15:35 20,2 C 36 % 1021,8 hPa 0,0 mm W-NW 295 6,4 km/h (2 Bft)
10.04.2020 15:40 20,1 C 36 % 1021,7 hPa 0,0 mm NO 42 12,9 km/h (3 Bft)
10.04.2020 15:45 19,6 C 44 % 1021,6 hPa 0,0 mm SO 146 9,7 km/h (2 Bft)
10.04.2020 15:50 19,5 C 46 % 1021,6 hPa 0,0 mm O-NO 69 8,0 km/h (2 Bft)
10.04.2020 15:55 19,6 C 40 % 1021,5 hPa 0,0 mm N-NO 31 6,4 km/h (2 Bft)
10.04.2020 16:00 19,7 C 39 % 1021,5 hPa 0,0 mm W-NW 287 8,0 km/h (2 Bft)
10.04.2020 16:05 19,7 C 39 % 1021,4 hPa 0,0 mm O-NO 60 4,8 km/h (1 Bft)
10.04.2020 16:10 19,6 C 43 % 1021,4 hPa 0,0 mm S-SO 149 6,4 km/h (2 Bft)
10.04.2020 16:15 19,5 C 39 % 1021,3 hPa 0,0 mm O-SO 111 11,3 km/h (2 Bft)
10.04.2020 16:20 19,4 C 43 % 1021,3 hPa 0,0 mm N 5 12,9 km/h (3 Bft)
10.04.2020 16:25 19,6 C 40 % 1021,3 hPa 0,0 mm N-NO 13 12,9 km/h (3 Bft)
10.04.2020 16:30 19,6 C 38 % 1021,3 hPa 0,0 mm N 11 11,3 km/h (2 Bft)
10.04.2020 16:35 19,5 C 39 % 1021,3 hPa 0,0 mm O 92 9,7 km/h (2 Bft)
10.04.2020 16:40 19,6 C 37 % 1021,3 hPa 0,0 mm W-NW 282 8,0 km/h (2 Bft)
10.04.2020 16:45 19,7 C 36 % 1021,3 hPa 0,0 mm W-NW 282 4,8 km/h (1 Bft)
10.04.2020 16:50 20,0 C 38 % 1021,3 hPa 0,0 mm W-NW 291 6,4 km/h (2 Bft)
10.04.2020 16:55 20,2 C 37 % 1021,3 hPa 0,0 mm W-NW 288 9,7 km/h (2 Bft)
10.04.2020 17:00 20,6 C 37 % 1021,2 hPa 0,0 mm W 265 11,3 km/h (2 Bft)
10.04.2020 17:05 20,5 C 40 % 1021,1 hPa 0,0 mm W 259 8,0 km/h (2 Bft)
10.04.2020 17:10 20,5 C 35 % 1021,1 hPa 0,0 mm W 272 12,9 km/h (3 Bft)
10.04.2020 17:15 20,3 C 36 % 1021,1 hPa 0,0 mm W 267 12,9 km/h (3 Bft)
10.04.2020 17:20 20,3 C 38 % 1021,1 hPa 0,0 mm W-NW 295 11,3 km/h (2 Bft)
10.04.2020 17:25 20,1 C 37 % 1021,1 hPa 0,0 mm W 274 14,5 km/h (3 Bft)
10.04.2020 17:30 19,7 C 37 % 1021,0 hPa 0,0 mm N-NO 28 6,4 km/h (2 Bft)
10.04.2020 17:35 19,4 C 38 % 1021,0 hPa 0,0 mm NO 55 11,3 km/h (2 Bft)
10.04.2020 17:40 19,3 C 39 % 1021,0 hPa 0,0 mm W-NW 292 9,7 km/h (2 Bft)
10.04.2020 17:45 19,7 C 38 % 1021,1 hPa 0,0 mm W 269 8,0 km/h (2 Bft)
10.04.2020 17:50 19,8 C 38 % 1021,1 hPa 0,0 mm W-SW 258 9,7 km/h (2 Bft)
10.04.2020 17:55 19,6 C 39 % 1021,1 hPa 0,0 mm N 9 6,4 km/h (2 Bft)
10.04.2020 18:00 19,6 C 37 % 1021,0 hPa 0,0 mm W-SW 255 6,4 km/h (2 Bft)
10.04.2020 18:05 19,4 C 37 % 1021,1 hPa 0,0 mm W-NW 289 4,8 km/h (1 Bft)
10.04.2020 18:10 19,2 C 39 % 1021,0 hPa 0,0 mm W-NW 284 11,3 km/h (2 Bft)
10.04.2020 18:15 19,3 C 38 % 1021,1 hPa 0,0 mm W 266 8,0 km/h (2 Bft)
10.04.2020 18:20 19,3 C 38 % 1021,0 hPa 0,0 mm W-NW 299 4,8 km/h (1 Bft)
10.04.2020 18:25 19,4 C 38 % 1021,1 hPa 0,0 mm N-NW 344 4,8 km/h (1 Bft)
10.04.2020 18:30 19,3 C 38 % 1021,1 hPa 0,0 mm W 265 6,4 km/h (2 Bft)
10.04.2020 18:35 19,2 C 38 % 1021,1 hPa 0,0 mm W 266 4,8 km/h (1 Bft)
10.04.2020 18:40 19,0 C 39 % 1021,2 hPa 0,0 mm W 266 3,2 km/h (1 Bft)
10.04.2020 18:45 18,9 C 39 % 1021,2 hPa 0,0 mm W 266 3,2 km/h (1 Bft)
10.04.2020 18:50 18,9 C 40 % 1021,2 hPa 0,0 mm W 265 3,2 km/h (1 Bft)
10.04.2020 18:55 18,3 C 47 % 1021,3 hPa 0,0 mm W 265 3,2 km/h (1 Bft)
10.04.2020 19:00 17,6 C 49 % 1021,3 hPa 0,0 mm W 265 1,6 km/h (1 Bft)
10.04.2020 19:05 16,2 C 56 % 1021,3 hPa 0,0 mm SO 132 6,4 km/h (2 Bft)
10.04.2020 19:10 16,2 C 54 % 1021,3 hPa 0,0 mm N-NO 23 4,8 km/h (1 Bft)
10.04.2020 19:15 16,2 C 53 % 1021,3 hPa 0,0 mm O 83 4,8 km/h (1 Bft)
10.04.2020 19:20 16,3 C 52 % 1021,3 hPa 0,0 mm O 85 3,2 km/h (1 Bft)
10.04.2020 19:25 16,1 C 54 % 1021,3 hPa 0,0 mm O 85 3,2 km/h (1 Bft)
10.04.2020 19:30 15,6 C 55 % 1021,4 hPa 0,0 mm O 85 1,6 km/h (1 Bft)
10.04.2020 19:35 15,2 C 57 % 1021,4 hPa 0,0 mm O 85 0,0 km/h (0 Bft)
10.04.2020 19:40 14,9 C 58 % 1021,4 hPa 0,0 mm O 85 0,0 km/h (0 Bft)
10.04.2020 19:45 14,6 C 59 % 1021,4 hPa 0,0 mm O 85 0,0 km/h (0 Bft)
10.04.2020 19:50 14,3 C 60 % 1021,5 hPa 0,0 mm O 85 0,0 km/h (0 Bft)
10.04.2020 19:55 13,9 C 61 % 1021,5 hPa 0,0 mm O 85 1,6 km/h (1 Bft)
10.04.2020 20:00 13,7 C 62 % 1021,6 hPa 0,0 mm O 85 1,6 km/h (1 Bft)
10.04.2020 20:05 13,6 C 61 % 1021,6 hPa 0,0 mm O 85 0,0 km/h (0 Bft)
10.04.2020 20:10 13,6 C 62 % 1021,7 hPa 0,0 mm O 85 0,0 km/h (0 Bft)
10.04.2020 20:15 13,4 C 62 % 1021,7 hPa 0,0 mm O 85 0,0 km/h (0 Bft)
10.04.2020 20:20 13,3 C 62 % 1021,7 hPa 0,0 mm O 85 1,6 km/h (1 Bft)
10.04.2020 20:25 13,1 C 62 % 1021,8 hPa 0,0 mm O 85 1,6 km/h (1 Bft)
10.04.2020 20:30 12,9 C 63 % 1021,9 hPa 0,0 mm O 85 0,0 km/h (0 Bft)
10.04.2020 20:35 12,7 C 63 % 1021,9 hPa 0,0 mm O 85 1,6 km/h (1 Bft)
10.04.2020 20:40 12,3 C 64 % 1022,0 hPa 0,0 mm O 85 1,6 km/h (1 Bft)
10.04.2020 20:45 12,0 C 65 % 1022,1 hPa 0,0 mm O 85 1,6 km/h (1 Bft)
10.04.2020 20:50 11,8 C 66 % 1022,2 hPa 0,0 mm O 85 3,2 km/h (1 Bft)
10.04.2020 20:55 11,6 C 66 % 1022,3 hPa 0,0 mm O 85 3,2 km/h (1 Bft)
10.04.2020 21:00 11,4 C 66 % 1022,4 hPa 0,0 mm O 85 1,6 km/h (1 Bft)
10.04.2020 21:05 11,2 C 67 % 1022,4 hPa 0,0 mm O 85 3,2 km/h (1 Bft)
10.04.2020 21:10 11,1 C 67 % 1022,4 hPa 0,0 mm O 85 3,2 km/h (1 Bft)
10.04.2020 21:15 10,9 C 68 % 1022,5 hPa 0,0 mm O 85 1,6 km/h (1 Bft)
10.04.2020 21:20 10,6 C 69 % 1022,5 hPa 0,0 mm O 85 0,0 km/h (0 Bft)
10.04.2020 21:25 10,4 C 69 % 1022,5 hPa 0,0 mm O 85 1,6 km/h (1 Bft)
10.04.2020 21:30 10,3 C 70 % 1022,5 hPa 0,0 mm O 85 0,0 km/h (0 Bft)
10.04.2020 21:35 10,1 C 70 % 1022,5 hPa 0,0 mm O 85 1,6 km/h (1 Bft)
10.04.2020 21:40 9,9 C 71 % 1022,5 hPa 0,0 mm O 85 0,0 km/h (0 Bft)
10.04.2020 21:45 9,7 C 71 % 1022,6 hPa 0,0 mm O 85 4,8 km/h (1 Bft)
10.04.2020 21:50 9,4 C 71 % 1022,6 hPa 0,0 mm O 85 3,2 km/h (1 Bft)
10.04.2020 21:55 9,3 C 72 % 1022,8 hPa 0,0 mm O 85 3,2 km/h (1 Bft)
10.04.2020 22:00 9,2 C 72 % 1022,8 hPa 0,0 mm O 85 3,2 km/h (1 Bft)
10.04.2020 22:05 9,1 C 72 % 1022,8 hPa 0,0 mm O 85 3,2 km/h (1 Bft)
10.04.2020 22:10 8,9 C 72 % 1022,8 hPa 0,0 mm O 85 1,6 km/h (1 Bft)
10.04.2020 22:15 8,7 C 73 % 1022,7 hPa 0,0 mm O 85 4,8 km/h (1 Bft)
10.04.2020 22:20 8,6 C 73 % 1022,8 hPa 0,0 mm O 85 3,2 km/h (1 Bft)
10.04.2020 22:25 8,6 C 74 % 1022,7 hPa 0,0 mm O 85 4,8 km/h (1 Bft)
10.04.2020 22:30 8,5 C 75 % 1022,7 hPa 0,0 mm O 85 4,8 km/h (1 Bft)
10.04.2020 22:35 8,4 C 75 % 1022,8 hPa 0,0 mm O 85 4,8 km/h (1 Bft)
10.04.2020 22:40 8,4 C 76 % 1022,7 hPa 0,0 mm O 85 4,8 km/h (1 Bft)
10.04.2020 22:45 8,3 C 76 % 1022,7 hPa 0,0 mm O 85 4,8 km/h (1 Bft)
10.04.2020 22:50 8,2 C 77 % 1022,7 hPa 0,0 mm O 85 4,8 km/h (1 Bft)
10.04.2020 22:55 8,1 C 77 % 1022,7 hPa 0,0 mm O 85 3,2 km/h (1 Bft)
10.04.2020 23:00 8,1 C 77 % 1022,7 hPa 0,0 mm O 85 4,8 km/h (1 Bft)
10.04.2020 23:05 8,1 C 77 % 1022,8 hPa 0,0 mm O 85 1,6 km/h (1 Bft)
10.04.2020 23:10 7,9 C 78 % 1022,8 hPa 0,0 mm O 85 3,2 km/h (1 Bft)
10.04.2020 23:15 7,9 C 78 % 1022,8 hPa 0,0 mm O 85 4,8 km/h (1 Bft)
10.04.2020 23:20 7,9 C 78 % 1022,8 hPa 0,0 mm O 85 4,8 km/h (1 Bft)
10.04.2020 23:25 7,9 C 79 % 1022,9 hPa 0,0 mm O 84 4,8 km/h (1 Bft)
10.04.2020 23:30 7,8 C 79 % 1022,9 hPa 0,0 mm O 84 4,8 km/h (1 Bft)
10.04.2020 23:35 7,9 C 79 % 1022,8 hPa 0,0 mm O 84 4,8 km/h (1 Bft)
10.04.2020 23:40 7,8 C 79 % 1022,8 hPa 0,0 mm O 84 4,8 km/h (1 Bft)
10.04.2020 23:45 7,8 C 79 % 1022,8 hPa 0,0 mm O 84 4,8 km/h (1 Bft)
10.04.2020 23:50 7,8 C 79 % 1022,8 hPa 0,0 mm O 84 4,8 km/h (1 Bft)
10.04.2020 23:55 7,7 C 79 % 1022,9 hPa 0,0 mm O 84 4,8 km/h (1 Bft)
_ Min-Zeit 06:50 17:10 17:30 - - - 01:25
Minimum _ 2,7 C 35 % 1021,0 hPa - - - 0,0 km/h (0 Bft)
_ Max-Zeit 14:35 07:55 08:00 00:00 - - 10:15
Maximum _ 20,7 C 88 % 1024,9 hPa 0,0 mm - - 14,5 km/h
O-NO (3 Bft)
Durchschnitt _ 11,5 C 66 % 1023,2 hPa #0,0 mm W - 5,4 km/h (1 Bft)